User: anonymous   Login
Location: Unspecified
(0.0000°N, 0.0000°E)
Time: 19:59:32
(UTC+00:00)
Language:

GONETS M 11 (M21) - Orbit

View from above orbital plane
View from above orbital plane
View from above satellite
View from above satellite

Ground track
Ground track

The orbit data is extracted from the following two-line orbital elements,

1 40552U 15020A   18171.65790259 +.00000047 +00000-0 +27067-3 0  9991
2 40552 082.4866 049.4205 0015111 249.9051 110.0404 12.42876691146215
Epoch (UTC): 20 June 2018 15:47:22
Eccentricity: 0.0015111
inclination: 82.4866°
perigee height: 1482 km
apogee height: 1506 km
right ascension of ascending node: 49.4205°
argument of perigee: 249.9051°
revolutions per day: 12.42876691
mean anomaly at epoch: 110.0404°
orbit number at epoch: 14621

The dashed part of the orbit path shows where the satellite is in the earth's shadow,  

DLR